Weather History for 17060 - November, 2012

Change the Weather History Date:

Monday, November 19, 2012

  Actual Average Record
Temperature  
Mean Temperature 57 °F -  
Max Temperature 63 °F 52 °F - ()
Min Temperature 51 °F 43 °F - ()
Degree Days  
Heating Degree Days 8    
Growing Degree Days 7 (Base 50)    
Moisture  
Dew Point 52 °F    
Average Humidity 80    
Maximum Humidity 100    
Minimum Humidity 57    
Precipitation  
Precipitation 0.00 in - - ()
Sea Level Pressure  
Sea Level Pressure 30.12 in    
Wind  
Wind Speed 5 mph ()    
Max Wind Speed 12 mph    
Max Gust Speed -    
Visibility 5.8 miles    
Events      
T = Trace of Precipitation, MM = Missing Value Source: Averaged Metar Reports

Daily Weather History Graph

Daily Weather History Graph

Search for Another Location

Airport or City:

Trip Planner

Search our weather history database for the weather conditions in past years. The results will help you decide how hot, cold, wet, or windy it might be!

Date:

Astronomy

Nov. 19, 2012 Rise Set
Actual Time 6:57 AM EET 4:42 PM EET
Civil Twilight 6:27 AM EET 5:12 PM EET
Nautical Twilight 5:53 AM EET 5:46 PM EET
Astronomical Twilight 5:21 AM EET 6:18 PM EET
Moon 11:47 AM EET (11/19) 10:49 PM EET (11/19)
Length of Visible Light 10h 45m
Length of Day
9h 45m
Waxing Crescent, 37% of the Moon is Illuminated
Nov 19
Waxing Crescent
Nov 20
First Quarter
Nov 28
Full
Dec 6
Last Quarter
Dec 13
New

Hourly Weather History & Observations

Time (EET) Temp. Dew Point Humidity Pressure Visibility Wind Dir Wind Speed Gust Speed Precip Events Conditions
12:20 AM 57.2 °F 53.6 °F 88% 30.12 in 6.2 mi NE 4.6 mph - N/A   Scattered Clouds
12:50 AM 57.2 °F 53.6 °F 88% 30.12 in 6.2 mi NNE 4.6 mph - N/A   Scattered Clouds
1:20 AM 60.8 °F 53.6 °F 77% 30.12 in 6.2 mi Variable 6.9 mph - N/A   Scattered Clouds
1:50 AM 57.2 °F 53.6 °F 88% 30.12 in 6.2 mi ENE 5.8 mph - N/A   Scattered Clouds
2:00 AM 58 °F 53 °F 78% 30.12 in 6 mi ENE 5.8 mph - -   Partly Cloudy
2:20 AM 57.2 °F 53.6 °F 88% 30.12 in 6.2 mi NNE 3.5 mph - N/A   Scattered Clouds
2:50 AM 51.8 °F 51.8 °F 100% 30.12 in 6.2 mi North 4.6 mph - N/A   Scattered Clouds
3:20 AM 51.8 °F 51.8 °F 100% 30.12 in 6.2 mi North 5.8 mph - N/A   Scattered Clouds
3:50 AM 51.8 °F 51.8 °F 100% 30.12 in 6.2 mi North 5.8 mph - N/A   Scattered Clouds
4:20 AM 51.8 °F 51.8 °F 100% 30.12 in 6.2 mi North 3.5 mph - N/A   Scattered Clouds
4:50 AM 51.8 °F 51.8 °F 100% 30.12 in 6.2 mi North 3.5 mph - N/A   Scattered Clouds
5:20 AM 55.4 °F 55.4 °F 100% 30.12 in 6.2 mi NNE 3.5 mph - N/A   Scattered Clouds
5:50 AM 55.4 °F 55.4 °F 100% 30.12 in 6.2 mi Variable 2.3 mph - N/A   Scattered Clouds
6:20 AM 55.4 °F 55.4 °F 100% 30.12 in 6.2 mi ENE 3.5 mph - N/A   Scattered Clouds
6:50 AM 57.2 °F 55.4 °F 94% 30.12 in 3.7 mi ENE 4.6 mph - N/A   Scattered Clouds
7:20 AM 57.2 °F 53.6 °F 88% 30.12 in 6.2 mi East 4.6 mph - N/A   Scattered Clouds
7:50 AM 57.2 °F 53.6 °F 88% 30.12 in 6.2 mi ENE 5.8 mph - N/A   Scattered Clouds
8:00 AM 56 °F 52 °F 83% 30.13 in 6 mi ENE 5.8 mph - -   Partly Cloudy
8:20 AM 57.2 °F 51.8 °F 82% 30.12 in 6.2 mi ENE 5.8 mph - N/A   Scattered Clouds
8:50 AM 59.0 °F 51.8 °F 77% 30.12 in 6.2 mi East 4.6 mph - N/A   Scattered Clouds
9:20 AM 59.0 °F 50.0 °F 72% 30.12 in 6.2 mi SE 5.8 mph - N/A   Scattered Clouds
9:50 AM 59.0 °F 51.8 °F 77% 30.12 in 3.7 mi SE 8.1 mph - N/A   Scattered Clouds
10:20 AM 59.0 °F 51.8 °F 77% 30.12 in 5.0 mi ESE 4.6 mph - N/A   Scattered Clouds
10:50 AM 59.0 °F 50.0 °F 72% 30.12 in 5.0 mi ESE 5.8 mph - N/A   Scattered Clouds
11:20 AM 60.8 °F 50.0 °F 68% 30.12 in 6.2 mi SE 5.8 mph - N/A   Scattered Clouds
11:50 AM 59.0 °F 48.2 °F 67% 30.12 in 6.2 mi SSE 5.8 mph - N/A   Scattered Clouds
12:20 PM 60.8 °F 48.2 °F 63% 30.09 in 6.2 mi SE 6.9 mph - N/A   Scattered Clouds
12:50 PM 60.8 °F 50.0 °F 68% 30.09 in 6.2 mi ESE 5.8 mph - N/A   Scattered Clouds
1:20 PM 60.8 °F 50.0 °F 68% 30.09 in 6.2 mi ESE 5.8 mph - N/A   Scattered Clouds
1:50 PM 62.6 °F 50.0 °F 63% 30.09 in 6.2 mi SSE 6.9 mph - N/A   Scattered Clouds
2:00 PM 62 °F 51 °F 57% 30.10 in 6 mi SSE 6.9 mph - -   Partly Cloudy
2:20 PM 60.8 °F 48.2 °F 63% 30.09 in 6.2 mi SSE 5.8 mph - N/A   Partly Cloudy
2:50 PM 62.6 °F 48.2 °F 59% 30.09 in 3.7 mi ESE 3.5 mph - N/A   Scattered Clouds
3:20 PM 62.6 °F 50.0 °F 63% 30.09 in 3.7 mi ESE 5.8 mph - N/A   Scattered Clouds
3:50 PM 62.6 °F 50.0 °F 63% 30.09 in 6.2 mi NE 9.2 mph - N/A   Partly Cloudy
4:20 PM 62.6 °F 51.8 °F 68% 30.09 in 6.2 mi NNE 10.4 mph - N/A   Scattered Clouds
4:50 PM 60.8 °F 51.8 °F 72% 30.12 in 6.2 mi NNE 11.5 mph - N/A   Scattered Clouds
5:20 PM 60.8 °F 51.8 °F 72% 30.12 in 6.2 mi NNE 9.2 mph - N/A   Partly Cloudy
5:50 PM 60.8 °F 51.8 °F 72% 30.12 in - NE 9.2 mph - N/A   Clear
6:20 PM 59.0 °F 51.8 °F 77% 30.12 in - NE 11.5 mph - N/A   Clear
6:50 PM 60.8 °F 51.8 °F 72% 30.12 in - ENE 10.4 mph - N/A   Clear
7:20 PM 60.8 °F 51.8 °F 72% 30.12 in - NE 10.4 mph - N/A   Clear
7:50 PM 59.0 °F 53.6 °F 82% 30.12 in 4.3 mi NE 9.2 mph - N/A   Unknown
8:00 PM 60 °F 53 °F 71% 30.15 in 4 mi NE 9.2 mph - -   Mist
8:20 PM 60.8 °F 53.6 °F 77% 30.12 in - ENE 10.4 mph - N/A   Clear
8:50 PM 59.0 °F 53.6 °F 82% 30.12 in - ENE 8.1 mph - N/A   Clear
9:20 PM 59.0 °F 53.6 °F 82% 30.12 in - ENE 9.2 mph - N/A   Clear
9:50 PM 59.0 °F 53.6 °F 82% 30.12 in - NE 6.9 mph - N/A   Clear
10:20 PM 59.0 °F 53.6 °F 82% 30.12 in - NE 6.9 mph - N/A   Clear
10:50 PM 59.0 °F 53.6 °F 82% 30.12 in - ENE 4.6 mph - N/A   Clear
11:20 PM 59.0 °F 55.4 °F 88% 30.12 in - NE 4.6 mph - N/A   Clear
11:50 PM 57.2 °F 55.4 °F 94% 30.12 in - NNE 5.8 mph - N/A   Clear